Weather observations for the past three days for
Bridgewater Air Park
Imperial (Metric)
Date Time (edt) Wind (mph) Vis. (mi.) Weather Sky Cond. Temperature (ºF) Relative Humidity Wind Chill (°F) Heat Index (°F) Pressure Precipitation (in)
Air Dwpt 6 hour altimeter (in) sea level (mb) 1 hr 3 hr 6 hr
Max. Min.
20 21:35 Calm 10.00 Partly Cloudy SCT090 73.6 72.7 97% 30.08 0.0
20 21:15 S 5 10.00 Mostly Cloudy SCT040 SCT065 BKN090 75 70.2 85% 75 30.08 0.0
20 20:35 SE 6 10.00 Partly Cloudy SCT075 75.4 69.6 82% 76 30.06 0.0
20 20:15 S 6 10.00 Partly Cloudy SCT075 76.8 68.2 75% 78 30.07 0.0
20 19:55 SW 5 10.00 Partly Cloudy SCT075 77 69.1 80.1 74.3 77% 79 30.08 0.0 0.01
20 19:35 Calm 10.00 Partly Cloudy SCT110 77.9 68.5 73% 80 30.07 0.0
20 19:15 S 5 10.00 Partly Cloudy SCT110 78.4 68 70% 81 30.07 0.0
20 18:55 S 5 10.00 Partly Cloudy SCT110 78.8 68.2 70% 81 30.06 0.0
20 18:35 S 7 10.00 Fair CLR 79.2 68.4 70% 82 30.06 0.0
20 18:15 S 3 10.00 Fair CLR 79 69.3 72% 82 30.06 0.0
20 17:55 S 5 10.00 Partly Cloudy SCT026 SCT034 79 68.7 71% 81 30.06 0.0
20 17:35 SE 3 10.00 Fair CLR 79.7 70.2 73% 83 30.07 0.0
20 17:15 SE 3 10.00 Partly Cloudy SCT021 SCT027 79.7 69.8 72% 83 30.07 0.0
20 16:55 Calm 10.00 Partly Cloudy SCT022 SCT028 79.2 70 74% 82 30.08 0.0 0.01
20 16:35 SE 5 10.00 Mostly Cloudy BKN018 BKN027 79.3 71.2 76% 83 30.08 0.0
20 16:15 Calm 10.00 Mostly Cloudy SCT017 BKN023 77.7 72 83% 80 30.08 0.0
20 15:55 SE 6 10.00 Partly Cloudy SCT013 78.1 74.3 88% 81 30.07 0.0
20 15:35 SE 3 10.00 Mostly Cloudy SCT011 BKN032 BKN039 76.6 74.8 94% 77 30.09 0.0
20 15:15 Calm 10.00 Overcast BKN032 BKN040 OVC048 75.2 75.2 100% 73 30.1 0.0
20 14:55 SE 3 10.00 Overcast SCT031 BKN049 OVC070 74.8 74.8 100% 30.1 0.0 0.01
20 14:35 Calm 10.00 Overcast SCT038 BKN049 OVC095 74.5 74.5 100% 30.11 0.0 0.01
20 14:15 SE 3 10.00 Overcast SCT011 BKN065 OVC095 74.3 74.3 100% 30.11 0.0
20 13:55 SE 3 10.00 Overcast SCT050 BKN065 OVC100 74.3 74.3 76.1 68.2 100% 30.12 0.0 0.01 0.01
20 13:35 S 5 10.00 Overcast SCT049 BKN095 OVC120 74.3 73.6 98% 30.12 0.0
20 13:15 S 3 10.00 Overcast SCT055 BKN065 OVC110 74.3 73.2 96% 30.12 0.0
20 12:55 S 3 10.00 Overcast SCT050 BKN095 OVC110 74.7 73.6 96% 30.13 0.0
20 12:35 S 6 10.00 Overcast SCT060 SCT075 OVC095 74.8 71.2 89% 30.13 0.0
20 12:15 S 6 10.00 Overcast SCT023 BKN070 OVC095 75.4 70.7 85% 75 30.13 0.0
20 11:55 S 6 10.00 Overcast SCT060 OVC080 75.4 71.6 88% 75 30.13 0.0
20 11:35 S 7 10.00 Overcast OVC080 74.8 71.1 88% 30.13 0.0
20 11:15 S 5 10.00 Overcast SCT020 BKN080 OVC090 76.1 68.9 78% 77 30.13 0.0
20 10:55 SE 5 10.00 Overcast SCT020 BKN080 OVC090 76.1 68.5 78% 77 30.13 0.0
20 10:35 Calm 10.00 Overcast BKN080 OVC090 75.4 70.2 84% 76 30.13 0.0
20 10:15 Calm 10.00 Mostly Cloudy BKN080 74.8 70.2 85% 30.13 0.0
20 09:55 Calm 10.00 Fair CLR 73.9 71.8 93% 30.13 0.0
20 09:35 Calm 10.00 Fair CLR 72.5 71.6 97% 30.13 0.0
20 09:15 Calm 10.00 Fair CLR 71.6 71.1 98% 30.13 0.0
20 08:55 Calm 10.00 Fair CLR 71.1 70.2 97% 30.13 0.0
20 08:35 Calm 10.00 Fair CLR 69.8 69.8 100% 30.13 0.0
20 08:15 Calm 10.00 Fair CLR 68.9 68.9 100% 30.13 0.0
20 07:55 Calm 10.00 Fair CLR 68.2 68.2 72.9 66.6 100% 30.13 0.0
20 07:35 Calm 10.00 Fair CLR 67.5 67.5 100% 30.13 0.0
20 07:15 Calm 10.00 Fair CLR 67.3 67.3 100% 30.13 0.0
20 06:55 Calm 7.00 Fair CLR 66.7 66.7 100% 30.13 0.0
20 06:35 Calm 10.00 Fair CLR 66.7 66.7 100% 30.13 0.0
20 06:15 Calm 10.00 Fair CLR 66.7 66.7 100% 30.12 0.0
20 05:55 Calm 10.00 Fair CLR 67.3 67.3 100% 30.13 0.0
20 05:35 NW 3 10.00 Fair CLR 67.6 67.6 100% 30.12 0.0
20 05:15 Calm 10.00 Fair CLR 68 68 100% 30.12 0.0
20 04:55 NW 3 10.00 Fair CLR 68 68 100% 30.12 0.0
20 04:35 Calm 10.00 Fair CLR 68.4 68.4 100% 30.12 0.0
20 04:15 Calm 10.00 Fair CLR 69.3 69.3 100% 30.12 0.0
20 03:55 Calm 10.00 Fair CLR 69.8 69.8 100% 30.12 0.0
20 03:35 Calm 10.00 Fair CLR 70 70 100% 30.13 0.0
20 03:15 SE 3 10.00 Fair CLR 69.8 69.8 100% 30.13 0.0
20 02:55 Calm 10.00 Partly Cloudy SCT036 70.7 68.5 93% 30.12 0.0
20 02:35 SW 3 10.00 Mostly Cloudy SCT027 BKN036 72.3 67.1 84% 30.12 0.0
20 02:15 S 3 10.00 Mostly Cloudy BKN029 BKN034 BKN075 72.5 67.1 83% 30.12 0.0
20 01:55 S 5 10.00 Mostly Cloudy SCT036 SCT047 BKN070 72.7 67.5 79.3 71.2 84% 30.13 0.0
20 01:35 Calm 10.00 Overcast SCT028 BKN037 OVC070 72.9 68.4 86% 30.13 0.0
20 01:15 S 3 10.00 Overcast SCT030 BKN037 OVC060 72.5 68.9 89% 30.14 0.0
20 00:55 Calm 10.00 Overcast OVC060 71.4 71.1 99% 30.14 0.0
20 00:35 Calm 10.00 Partly Cloudy SCT060 73.6 67.5 81% 30.15 0.0
20 00:15 S 6 10.00 Fair CLR 74.3 67.5 79% 30.14 0.0
19 23:55 S 5 10.00 Fair CLR 73.9 67.3 80% 30.14 0.0
19 23:35 S 6 10.00 Fair CLR 73.9 67.1 79% 30.14 0.0
19 23:15 S 5 10.00 Fair CLR 73.8 67.1 80% 30.14 0.0
19 22:55 S 6 10.00 Fair CLR 74.3 66.7 77% 30.14 0.0
19 22:35 SE 6 10.00 Partly Cloudy SCT090 73.4 67.3 81% 30.13 0.0
19 22:15 S 5 10.00 Partly Cloudy SCT090 74.7 66.2 75% 30.14 0.0
19 21:55 SE 5 10.00 Partly Cloudy SCT090 74.3 66.4 76% 30.14 0.0
19 21:35 S 6 10.00 Partly Cloudy SCT080 73.8 66.2 77% 30.13 0.0
19 21:15 S 6 10.00 Partly Cloudy SCT090 73.9 65.8 76% 30.12 0.0
19 20:55 SE 5 10.00 Partly Cloudy SCT040 SCT090 SCT110 75.7 65.3 70% 77 30.12 0.0
19 20:35 SE 6 10.00 Partly Cloudy SCT040 SCT080 SCT110 77.5 64.4 64% 79 30.12 0.0
19 20:15 S 8 10.00 Partly Cloudy SCT080 SCT110 78.8 63.7 60% 80 30.11 0.0
19 19:55 S 10 10.00 Overcast SCT044 SCT050 OVC110 79.5 64 86.7 79.5 59% 81 30.1 0.0
19 19:35 S 9 10.00 Overcast BKN046 BKN050 OVC070 80.6 64 57% 82 30.09 0.0
19 19:15 SE 10 G 17 10.00 Overcast BKN048 OVC060 81.7 63.9 55% 83 30.09 0.0
19 18:55 SE 10 10.00 Overcast BKN050 OVC100 83.1 63.9 52% 84 30.08 0.0
19 18:35 SE 7 10.00 Mostly Cloudy SCT050 SCT060 BKN100 82.4 64.2 54% 84 30.08 0.0
19 18:15 SE 5 10.00 Partly Cloudy SCT060 82 63.5 54% 83 30.08 0.0
19 17:55 SE 5 10.00 Partly Cloudy SCT060 SCT110 82.6 63.9 53% 84 30.08 0.0
19 17:35 SE 8 10.00 Partly Cloudy SCT060 SCT070 84.7 64.6 51% 86 30.08 0.0
19 17:15 SE 9 10.00 Partly Cloudy SCT050 SCT070 85.5 63 47% 86 30.08 0.0
19 16:55 SE 9 10.00 Mostly Cloudy SCT050 BKN060 86.7 64.8 48% 88 30.09 0.0
19 16:35 SE 9 10.00 Mostly Cloudy BKN050 86.4 64.6 48% 88 30.09 0.0
19 16:15 E 5 10.00 Partly Cloudy SCT050 84.2 61.7 47% 85 30.09 0.0
19 15:55 SE 5 10.00 Partly Cloudy SCT055 85.6 62.4 46% 86 30.1 0.0
19 15:35 SE 3 10.00 Partly Cloudy SCT065 SCT085 83.5 61.9 48% 84 30.12 0.0
19 15:15 Calm 10.00 Partly Cloudy SCT050 SCT065 SCT095 83.1 62.4 50% 84 30.12 0.0
19 14:55 S 8 10.00 Partly Cloudy SCT050 84 62.4 48% 85 30.13 0.0
19 14:35 Calm 10.00 Overcast BKN050 OVC060 81.1 62.6 53% 82 30.13 0.0
19 14:15 Calm 10.00 Mostly Cloudy SCT048 BKN060 81.7 62.2 52% 83 30.14 0.0
19 13:55 SE 5 10.00 Partly Cloudy SCT070 SCT080 82.9 63.1 82.9 67.5 51% 84 30.15 0.0
19 13:35 Calm 10.00 Mostly Cloudy BKN070 82 62.8 52% 83 30.16 0.0
19 13:15 E 3 10.00 Overcast OVC060 78.8 62.2 57% 80 30.16 0.0
19 12:55 Calm 10.00 Overcast OVC060 78.1 60.8 55% 80 30.16 0.0
19 12:35 Calm 10.00 Overcast OVC060 77.4 60.4 56% 79 30.16 0.0
19 12:15 Calm 10.00 Overcast OVC060 76.6 59.5 56% 78 30.17 0.0
19 11:55 Calm 10.00 Overcast BKN060 OVC095 77.7 60.1 55% 79 30.17 0.0
19 11:15 N 3 10.00 Partly Cloudy SCT095 75.6 58.6 56% 78 30.16 0.0
19 10:55 N 6 10.00 Fair CLR 75.6 59 57% 78 30.17 0.0
19 10:35 N 6 10.00 Fair CLR 74.7 58.5 57% 30.17 0.0
19 10:15 N 6 10.00 Partly Cloudy SCT090 73.8 58.1 58% 30.17 0.0
19 09:55 N 5 10.00 Mostly Cloudy SCT065 SCT075 BKN090 72.7 57.7 60% 30.17 0.0
19 09:35 N 5 10.00 Overcast BKN065 OVC090 70.7 56.7 61% 30.17 0.0
19 09:15 NE 6 10.00 Overcast BKN065 OVC075 71.1 56.8 61% 30.17 0.0
19 08:55 NE 3 10.00 Mostly Cloudy BKN070 70.5 57 62% 30.17 0.0
19 08:35 N 3 10.00 Fair CLR 70.3 60.4 71% 30.17 0.0
19 08:15 Calm 10.00 Partly Cloudy SCT095 68.4 63.1 84% 30.16 0.0
19 07:55 Calm 10.00 Mostly Cloudy BKN095 67.1 65.7 68.4 63 95% 30.15 0.0
19 07:35 Calm 10.00 Mostly Cloudy BKN095 65.8 65.7 99% 30.15 0.0
19 07:15 Calm 10.00 Mostly Cloudy SCT060 BKN095 64.8 64.8 100% 30.14 0.0
19 06:55 Calm 10.00 Overcast SCT060 OVC095 64 64 100% 30.13 0.0
19 06:35 Calm 7.00 Overcast SCT055 SCT080 OVC095 63.9 63.9 100% 30.12 0.0
19 06:15 Calm 10.00 Overcast OVC055 63.7 63.7 100% 30.12 0.0
19 05:55 Calm 10.00 Mostly Cloudy BKN055 BKN080 63.5 63.5 100% 30.11 0.0
19 05:35 Calm 10.00 Partly Cloudy SCT043 SCT080 63.1 63.1 100% 30.1 0.0
19 05:15 W 3 10.00 Fair CLR 63.9 63.9 100% 30.1 0.0
19 04:55 Calm 10.00 Fair CLR 64.4 64.4 100% 30.09 0.0
19 04:35 Calm 10.00 Fair CLR 66.6 66 98% 30.09 0.0
19 04:15 Calm 10.00 Partly Cloudy SCT042 SCT050 SCT060 67.1 67.1 100% 30.09 0.0
19 03:55 Calm 10.00 Overcast BKN042 BKN050 OVC060 67.8 67.8 100% 30.08 0.0
19 03:35 Calm 10.00 Overcast SCT044 SCT050 OVC060 67.6 67.6 100% 30.09 0.0
19 03:15 W 3 10.00 Overcast SCT048 BKN060 OVC070 67.3 67.3 100% 30.09 0.0
19 02:55 Calm 10.00 Overcast SCT050 OVC070 68 68 100% 30.08 0.0
19 02:35 Calm 10.00 Overcast SCT048 OVC055 68.2 68.2 100% 30.09 0.0
19 02:15 Calm 10.00 Mostly Cloudy BKN048 BKN100 68.4 68.4 100% 30.09 0.0
19 01:55 NW 3 10.00 Partly Cloudy SCT070 SCT100 68 68 76.1 68 100% 30.08 0.0
19 01:35 NW 5 10.00 Overcast SCT050 OVC060 68.9 68.9 100% 30.08 0.0
19 01:15 Calm 10.00 Overcast OVC050 69.8 69.8 100% 30.09 0.0
19 00:55 NW 5 10.00 Mostly Cloudy BKN050 BKN070 69.1 69.1 100% 30.08 0.0
19 00:35 Calm 10.00 Partly Cloudy SCT050 SCT070 69.1 69.1 100% 30.08 0.0
19 00:15 Calm 7.00 Overcast SCT060 OVC070 69.8 69.8 100% 30.08 0.0
18 23:35 Calm 10.00 Overcast SCT060 BKN070 OVC080 69.8 69.8 100% 30.07 0.0
18 23:15 Calm 10.00 Mostly Cloudy SCT060 BKN070 BKN080 69.8 69.8 100% 30.06 0.0
18 22:55 NW 3 10.00 Mostly Cloudy BKN070 68.7 68.7 100% 30.07 0.0
18 22:35 Calm 10.00 Partly Cloudy SCT085 69.1 69.1 100% 30.06 0.0
18 22:15 Calm 10.00 Mostly Cloudy BKN085 BKN120 69.3 69.3 100% 30.05 0.0
18 21:55 Calm 10.00 Partly Cloudy SCT120 69.4 69.4 100% 30.04 0.0
18 21:35 Calm 10.00 Mostly Cloudy BKN080 71.1 71.1 100% 30.03 0.0
18 21:15 Calm 10.00 Overcast OVC080 71.4 71.4 100% 30.03 0.0
18 20:55 Calm 10.00 Mostly Cloudy SCT060 BKN080 BKN110 72.1 71.6 98% 30.03 0.0
18 20:35 Calm 10.00 Mostly Cloudy SCT070 BKN080 72.5 71.8 98% 30.02 0.0
18 20:15 Calm 10.00 Mostly Cloudy SCT070 BKN080 74.5 68.9 83% 30.01 0.0
18 19:55 Calm 10.00 Overcast SCT070 BKN080 OVC110 76.1 66.7 80.4 72.3 73% 78 30 0.0
18 19:35 Calm 10.00 Overcast SCT055 BKN075 OVC120 76.1 66.7 73% 78 30 0.0
18 19:15 NE 3 10.00 Overcast SCT037 BKN055 OVC075 75.4 67.1 76% 77 29.99 0.0
18 18:55 N 7 10.00 Overcast SCT034 BKN040 OVC085 76.1 67.5 75% 78 29.99 0.0
18 18:35 NW 3 10.00 Mostly Cloudy SCT046 SCT060 BKN085 75.9 67.5 75% 77 29.98 0.0
18 18:15 SW 3 10.00 Partly Cloudy SCT065 78.3 65.5 65% 80 29.98 0.0
18 17:55 S 6 10.00 Partly Cloudy SCT090 78.6 67.3 68% 81 29.97 0.0
18 17:35 Calm 10.00 Mostly Cloudy BKN090 BKN120 79.3 67.1 66% 82 29.99 0.0
18 17:15 Calm 10.00 Partly Cloudy SCT120 77.9 67.3 70% 80 29.97 0.0
18 16:55 Calm 10.00 Mostly Cloudy BKN120 77.4 65.8 68% 79 29.98 0.0
18 16:35 Calm 10.00 Mostly Cloudy BKN120 77 67.1 72% 79 29.98 0.0
18 16:15 Calm 10.00 Partly Cloudy SCT120 76.1 70 81% 77 29.98 0.0
18 15:55 Calm 10.00 Partly Cloudy SCT070 SCT090 73.9 71.8 93% 29.99 0.0
18 15:35 Calm 10.00 Mostly Cloudy SCT016 SCT026 BKN070 73.4 72.3 96% 30 0.0
18 15:15 Calm 10.00 Overcast SCT050 OVC070 72.7 72.7 100% 30 0.0
18 14:55 N 5 10.00 Overcast SCT038 BKN050 OVC070 73.6 67.5 81% 30.01 0.0
18 14:35 N 5 10.00 Overcast OVC038 77.2 64.8 66% 79 30.01 0.0
18 14:15 Calm 10.00 Mostly Cloudy BKN036 BKN050 BKN120 78.8 66 65% 81 30.01 0.0
18 13:55 E 3 10.00 Overcast BKN033 OVC039 77.4 65.8 77.5 71.2 68% 79 30.01 0.0
18 13:35 E 6 10.00 Overcast BKN033 BKN039 OVC045 77.5 66.7 69% 79 30.01 0.0
18 13:15 NE 5 10.00 Overcast BKN036 OVC046 76.3 68.4 77% 78 30.01 0.0
18 12:55 Calm 10.00 Mostly Cloudy SCT027 SCT034 BKN100 76.1 66.9 73% 78 30.01 0.0
18 12:35 Calm 10.00 Mostly Cloudy SCT027 SCT045 BKN070 75.4 67.6 77% 76 30.01 0.0
18 12:15 Calm 10.00 Overcast SCT038 BKN050 OVC090 76.1 70.9 84% 77 30.01 0.0
18 11:55 Calm 10.00 Overcast SCT040 BKN050 OVC100 74.3 74.3 100% 30.01 0.0
18 11:35 Calm 10.00 Overcast SCT049 BKN095 OVC110 74.5 71.2 90% 30.02 0.0
18 11:15 Calm 10.00 Partly Cloudy SCT065 SCT090 75.6 66.9 75% 77 30.02 0.0
18 10:55 NE 3 10.00 Partly Cloudy SCT065 76.3 68.2 76% 78 30.01 0.0
18 10:35 NE 3 10.00 Partly Cloudy SCT090 SCT110 76.1 68.9 78% 77 30 0.0
18 10:15 N 3 10.00 Mostly Cloudy SCT080 BKN100 75.6 73.8 94% 75 30 0.0
18 09:55 Calm 10.00 Overcast SCT070 BKN085 OVC110 74.5 74.5 100% 29.99 0.0
18 09:35 Calm 10.00 Overcast SCT070 OVC085 74.1 74.1 100% 30 0.0
18 09:15 Calm 10.00 Mostly Cloudy SCT085 BKN110 73 73 100% 29.99 0.0
18 08:55 Calm 10.00 Partly Cloudy SCT120 72.7 72.7 100% 29.99 0.0
18 08:35 Calm 10.00 Fair CLR 72.5 72.5 100% 29.99 0.0
18 08:15 Calm 7.00 Partly Cloudy SCT100 SCT120 71.6 71.6 100% 29.98 0.0
18 07:35 Calm 7.00 Mostly Cloudy BKN110 71.1 71.1 100% 29.97 0.0
18 07:15 Calm 10.00 Fair CLR 71.4 71.4 100% 29.96 0.0
18 06:55 Calm 7.00 Fair CLR 70.7 70.7 100% 29.96 0.0
18 06:35 Calm 5.00 Fair CLR 70.2 70.2 100% 29.95 0.0
18 06:15 Calm 10.00 Fair CLR 70.7 70.7 100% 29.95 0.0
18 05:55 Calm 10.00 Partly Cloudy SCT060 70.7 70.7 100% 29.94 0.0
18 05:35 Calm 7.00 Fair CLR 70.3 70.3 100% 29.93 0.0
18 05:15 Calm 10.00 Fair CLR 70.7 70.7 100% 29.92 0.0
18 04:55 Calm 10.00 Fair CLR 70.7 70.7 100% 29.92 0.0
18 04:35 Calm 10.00 Fair CLR 70.7 70.7 100% 29.91 0.0
18 04:15 Calm 10.00 Partly Cloudy SCT095 SCT120 71.1 71.1 100% 29.92 0.0
18 03:55 Calm 7.00 Partly Cloudy SCT075 SCT095 SCT120 71.1 71.1 100% 29.92 0.0
18 03:35 Calm 10.00 Partly Cloudy SCT085 SCT095 70.9 70.9 100% 29.92 0.0
18 03:15 Calm 10.00 Fair CLR 71.8 71.8 100% 29.92 0.0
18 02:55 W 3 10.00 Partly Cloudy SCT120 72.1 72.1 100% 29.93 0.0
18 02:35 NW 3 10.00 Partly Cloudy SCT120 72.1 72.1 100% 29.93 0.0
18 02:15 Calm 10.00 Partly Cloudy SCT080 SCT120 71.8 71.8 100% 29.93 0.0
18 01:55 Calm 10.00 Mostly Cloudy BKN080 72 72 80.1 71.6 100% 29.93 0.0
18 01:35 Calm 10.00 Mostly Cloudy BKN090 72.3 72.3 100% 29.94 0.0
18 01:15 Calm 10.00 Mostly Cloudy BKN065 BKN080 74.5 72.7 94% 29.94 0.0
18 00:55 Calm 10.00 Mostly Cloudy SCT049 BKN065 BKN080 72.9 72.9 100% 29.94 0.0
18 00:35 Calm 10.00 Overcast BKN049 OVC075 73.4 73.4 100% 29.93 0.0
18 00:15 Calm 10.00 Overcast BKN047 OVC060 75.2 74.5 98% 73 29.94 0.0
17 23:55 Calm 10.00 Overcast SCT047 BKN060 OVC070 73.2 73.2 100% 29.94 0.0
17 23:35 Calm 10.00 Mostly Cloudy SCT049 BKN060 BKN070 72.7 72.7 100% 29.93 0.0
17 23:15 Calm 10.00 Partly Cloudy SCT049 SCT110 72.9 72.9 100% 29.93 0.0
17 22:55 Calm 10.00 Mostly Cloudy BKN110 73.4 73.4 100% 29.92 0.0
17 22:35 Calm 10.00 Overcast OVC110 74.3 74.3 100% 29.93 0.0
17 22:15 SE 3 10.00 Overcast OVC110 74.7 74.7 100% 29.93 0.0
17 21:55 Calm 10.00 Mostly Cloudy SCT090 BKN110 73.6 73.6 100% 29.92 0.0
Date Time (edt) Wind (mph) Vis. (mi.) Weather Sky Cond. Air Dwpt Max. Min. Relative Humidity Wind Chill (°F) Heat Index (°F) altimeter (in) sea level (mb) 1 hr 3 hr 6 hr
6 hour
Temperature (ºF) Pressure Precipitation (in)